Regional Weather Roundup
Issued by NWS

Home | Current Version | Previous Version | Text Only | Print | Product List | Glossary On
Versions: 1 2 3 4 5 6 7 8 9 10 11 12 13 14 15 16 17 18 19 20 21 22 23 24 25 26 27 28 29 30 31 32 33 34 35 36 37 38 39 40 41 42 43 44 45 46 47 48 49 50
000
ASUS43 KIND 240209
RWRIN

WEATHER ROUNDUP FOR INDIANA
NATIONAL WEATHER SERVICE INDIANAPOLIS IN
1000 PM EDT WED AUG 23 2017

NOTE: "FAIR" INDICATES FEW OR NO CLOUDS BELOW 12,000 FEET WITH NO
SIGNIFICANT WEATHER AND/OR OBSTRUCTIONS TO VISIBILITY.

* - STATION DOES NOT REPORT WEATHER SUCH AS PRECIPITATION OR FOG.

+ - STATION NOT QUALITY CONTROLLED BY THE NATIONAL WEATHER SERVICE.
    USE DATA WITH CAUTION...ESPECIALLY DEWPOINT AND RELATIVE
    HUMIDITY OBSERVATIONS.

INZ001>003-010>013-019-020-240300-
NORTHWEST INDIANA

CITY           SKY/WX    TMP DP  RH WIND       PRES   REMARKS
GARY /AIRPORT/ PTCLDY    61  55  82 VRB3      30.04R
KNOX *+        FAIR      55  55 100 CALM      30.03R
LA PORTE +     MOCLDY    60  57  90 CALM      30.04R
MICHIGAN CITY+ FAIR      59  55  88 CALM      30.04R
MONTICELLO +   MOCLDY    64  57  79 NE3       30.02R
RENSSELAER +   FAIR      63  54  72 NE5       30.04R
VALPARAISO     FAIR      61  57  87 CALM      30.04R

$$

LMZ046-743>745-240300-
SOUTHERN LAKE MICHIGAN

STATION/POSITION TIME  TEMP    WIND        PRES    WAVE
                       AIR SEA DIR/SP/G            HT
                 (UTC) (F)     (DEG/KT/KT) (MB)    (FT)
BURNS HARBOR     0140   68     110/  6/  7 1017.3R
MICHIGAN CITY    0140   66     120/  3/  3   N/A
5NW MICH CITY    0200   69 74   80/  4/  6   N/A     2

$$

INZ004-005-014>016-021>024-240300-
NORTH CENTRAL INDIANA

CITY           SKY/WX    TMP DP  RH WIND       PRES   REMARKS
GOSHEN         FAIR      60  50  69 N6        30.02S
LOGANSPORT +   FAIR      63  55  77 N3        30.04R
PERU/GRISSOM   FAIR      63  56  80 NE5       30.02R
ROCHESTER +    MOCLDY    63  55  77 CALM      30.04R
SOUTH BEND     FAIR      59  54  83 N3        30.05R
WARSAW +       FAIR      59  52  77 CALM      30.03S

$$

INZ006>009-017-018-025>027-240300-
NORTHEAST INDIANA

CITY           SKY/WX    TMP DP  RH WIND       PRES   REMARKS
AUBURN +       FAIR      61  48  63 NW3       30.03R
FORT WAYNE     FAIR      62  51  67 NW5       30.02R
HUNTINGTON +   FAIR      62  52  70 N3        30.02S
KENDALLVILLE + FAIR      56  51  82 NW5       30.03S

$$

INZ028-029-035-036-043>045-051>053-240300-
WEST CENTRAL INDIANA

CITY           SKY/WX    TMP DP  RH WIND       PRES   REMARKS
GREENCASTLE +  FAIR      59  54  82 CALM      30.04R
LAFAYETTE      FAIR      63  59  87 W3        30.02R
TERRE HAUTE    FAIR      64  54  69 NW5       30.03R

$$

INZ030>032-037>040-046>048-054>057-064-065-240300-
CENTRAL INDIANA

CITY           SKY/WX    TMP DP  RH WIND       PRES   REMARKS
CP ATTERBURY + FAIR      59  55  88 W3        30.03R
COLUMBUS       CLEAR     63  57  82 CALM      30.02R
FRANKFORT +    CLOUDY    65  59  82 W3        30.04S
GREENWOOD *+   FAIR      84  77  80 NW3       30.03R
INDIANAPOLIS   FAIR      66  52  60 NW5       30.02R
-EAGLE CREEK   FAIR      67  54  63 CALM      30.02R
KOKOMO +       FAIR      64  56  75 N5        30.04R
MT COMFORT *+  FAIR      59  55  88 CALM      30.02S
SHELBYVILLE    FAIR      62  56  80 CALM      30.01R
ZIONSVILLE +   FAIR      58  55  88 CALM      30.04R

$$

INZ033-034-041-042-049-050-058-059-240300-
EAST CENTRAL INDIANA

CITY           SKY/WX    TMP DP  RH WIND       PRES   REMARKS
MUNCIE         FAIR      59  55  87 CALM      30.02R
RICHMOND +     FAIR      63  54  72 CALM      30.03R

$$

INZ060-061-067>069-081>083-085>088-240300-
SOUTHWEST INDIANA

CITY           SKY/WX    TMP DP  RH WIND       PRES   REMARKS
EVANSVILLE     FAIR      68  54  60 N6        30.02R
HUNTINGBURG +  FAIR      67  56  67 CALM      30.02R
WASHINGTON +   FAIR      63  55  76 MISG      30.02R

$$

INZ062-063-066-070>080-084-089>092-240300-
SOUTH CENTRAL AND SOUTHEAST INDIANA

CITY           SKY/WX    TMP DP  RH WIND       PRES   REMARKS
BEDFORD +      FAIR      63  54  72 CALM      30.02R
BLOOMINGTON    FAIR      59  53  80 CALM      30.03R
MADISON *+     FAIR      61  57  88 CALM      30.03R
NORTH VERNON + MOCLDY    61  57  88 CALM      30.02R
SEYMOUR +      FAIR      66  54  63 CALM      30.01R

$$





USA.gov is the U.S. government's official web portal to all federal, state and local government web resources and services.